TimeCDT,TemperatureF,Dew PointF,Humidity,Sea Level PressureIn,VisibilityMPH,Wind Direction,Wind SpeedMPH,Gust SpeedMPH,PrecipitationIn,Events,Conditions,WindDirDegrees,DateUTC
12:53 AM,53.1,39.0,59,30.12,10.0,SE,5.8,-,N/A,,Clear,130,2013-05-27 05:53:00
1:53 AM,51.1,39.0,63,30.13,10.0,SE,3.5,-,N/A,,Clear,130,2013-05-27 06:53:00
2:53 AM,51.1,39.0,63,30.12,10.0,SE,6.9,-,N/A,,Clear,130,2013-05-27 07:53:00
3:53 AM,51.1,37.9,61,30.10,10.0,ESE,4.6,-,N/A,,Clear,120,2013-05-27 08:53:00
4:53 AM,52.0,39.0,61,30.08,10.0,SE,6.9,-,N/A,,Overcast,130,2013-05-27 09:53:00
5:53 AM,53.1,39.0,59,30.09,10.0,ESE,8.1,-,N/A,,Overcast,120,2013-05-27 10:53:00
6:53 AM,54.0,37.9,55,30.10,10.0,ESE,6.9,-,N/A,,Overcast,120,2013-05-27 11:53:00
7:53 AM,55.0,37.9,53,30.08,10.0,ESE,6.9,-,N/A,,Overcast,110,2013-05-27 12:53:00
8:53 AM,57.0,37.0,47,30.06,10.0,ESE,11.5,19.6,N/A,,Overcast,110,2013-05-27 13:53:00
9:53 AM,59.0,37.0,44,30.04,10.0,ESE,10.4,19.6,N/A,,Overcast,110,2013-05-27 14:53:00
10:53 AM,63.0,39.9,43,30.04,10.0,ESE,9.2,-,N/A,,Overcast,120,2013-05-27 15:53:00
11:53 AM,64.9,43.0,45,30.03,10.0,SE,13.8,21.9,N/A,,Overcast,130,2013-05-27 16:53:00
12:53 PM,66.0,44.1,45,29.99,10.0,ESE,13.8,23.0,N/A,,Mostly Cloudy,120,2013-05-27 17:53:00
1:53 PM,68.0,44.1,42,29.96,10.0,ESE,11.5,21.9,N/A,,Overcast,110,2013-05-27 18:53:00
2:53 PM,66.0,44.1,45,29.97,10.0,SE,9.2,-,N/A,,Overcast,130,2013-05-27 19:53:00
3:53 PM,66.0,45.0,47,29.96,10.0,ESE,6.9,-,N/A,,Overcast,120,2013-05-27 20:53:00
4:53 PM,66.0,45.0,47,29.95,10.0,ESE,8.1,-,N/A,,Overcast,120,2013-05-27 21:53:00
5:53 PM,64.9,43.0,45,29.94,10.0,SE,10.4,-,N/A,,Overcast,130,2013-05-27 22:53:00
6:53 PM,64.0,43.0,46,29.92,10.0,SSE,8.1,-,N/A,,Overcast,150,2013-05-27 23:53:00
7:53 PM,62.1,44.1,52,29.92,10.0,SE,5.8,-,N/A,,Overcast,130,2013-05-28 00:53:00
8:53 PM,60.1,45.0,57,29.91,10.0,SE,10.4,-,N/A,,Overcast,130,2013-05-28 01:53:00
9:53 PM,59.0,46.0,62,29.93,10.0,SE,9.2,17.3,N/A,,Mostly Cloudy,130,2013-05-28 02:53:00
10:53 PM,57.9,45.0,62,29.94,10.0,SE,6.9,-,N/A,,Overcast,140,2013-05-28 03:53:00
11:53 PM,57.0,44.1,62,29.92,10.0,ESE,9.2,-,N/A,,Overcast,120,2013-05-28 04:53:00